Flag for U.S.A. Weather past 2 weeks in Corvallis, Oregon, U.S.A.

45 °F

Low clouds.

Feels Like: 45 °F
Forecast: 51 / 72 °F
Wind: No wind

Location: Corvallis Municipal

Current Time: Oct 9, 2015 at 4:36:35 AM

Latest Report: Oct 9, 2015 at 4:15 AM

Visibility: 0 mi

Pressure: 29.99 "Hg

Humidity: 93%

Dew point: 43 °F

Location of CorvallisLocation

Historic Weather in Corvallis — Graph


Corvallis temperature yesterday

Maximum temperature yesterday: 75 °F (at 3:35 PM)
Minimum temperature yesterday: 50 °F (at 5:55 AM)
Average temperature yesterday: 59 °F

Past Weeks' High & Low Weather Summary

High84 °F (Oct 5, 3:35 PM)94% (Sep 24, 6:55 AM)30.29 "Hg (Sep 24, 6:55 AM)
Low36 °F (Sep 28, 7:15 AM)23% (Sep 28, 5:15 PM)29.76 "Hg (Oct 4, 5:15 PM)
Average58 °F69%30.02 "Hg
* Reported Sep 24 3:15 AM — Oct 9 3:35 AM, Corvallis, Weather by CustomWeather, © 2015

Note: Actual official high and low records may vary slightly from our data, if they occured in-between our weather recording intervals... More about our weather records


Corvallis weather history for previous 24 hours

Time TempWeatherWind HumidityBarometerVisibility
3:35 AM
Fri, Oct 9
46 °FPassing clouds.No wind87%30.01 "Hg9 mi
3:15 AM46 °FClear.3 mph87%30.01 "Hg10 mi
2:55 AM46 °FClear.No wind93%30.01 "Hg10 mi
2:35 AM48 °FClear.No wind94%30.01 "Hg10 mi
2:15 AM46 °FClear.5 mph93%30.00 "Hg8 mi
1:55 AM48 °FClear.No wind94%30.00 "Hg10 mi
1:35 AM52 °FClear.No wind88%30.01 "Hg10 mi
1:15 AM52 °FClear.No wind88%30.01 "Hg10 mi
12:55 AM48 °FClear.6 mph94%30.01 "Hg10 mi
12:35 AM48 °FClear.5 mph94%30.01 "Hg10 mi
12:15 AM50 °FClear.5 mph88%30.01 "Hg10 mi
11:55 PM
Thu, Oct 8
52 °FClear.3 mph88%30.01 "Hg10 mi
11:35 PM52 °FClear.No wind82%30.02 "Hg10 mi
11:15 PM54 °FClear.No wind82%30.02 "Hg10 mi
10:55 PM54 °FClear.No wind82%30.03 "Hg10 mi
10:35 PM54 °FClear.No wind82%30.03 "Hg10 mi
10:15 PM55 °FClear.5 mph88%30.03 "Hg10 mi
9:55 PM57 °FClear.5 mph82%30.03 "Hg10 mi
9:15 PM57 °FClear.3 mph82%30.02 "Hg10 mi
8:35 PM59 °FClear.3 mph77%30.03 "Hg10 mi
7:55 PM61 °FClear.3 mph72%30.04 "Hg10 mi
7:35 PM61 °FSunny.3 mph72%30.04 "Hg10 mi
7:15 PM63 °FSunny.No wind68%30.04 "Hg10 mi
6:55 PM64 °FSunny.No wind68%30.04 "Hg10 mi
6:35 PM70 °FSunny.3 mph53%30.05 "Hg10 mi
6:15 PM72 °FSunny.No wind53%30.05 "Hg10 mi
5:55 PM73 °FSunny.5 mph47%30.05 "Hg10 mi
5:35 PM75 °FSunny.5 mph44%30.05 "Hg10 mi
5:15 PM72 °FSunny.3 mph53%30.06 "Hg10 mi
4:55 PM73 °FSunny.6 mph50%30.06 "Hg10 mi
4:35 PM73 °FSunny.No wind47%30.07 "Hg10 mi
4:15 PM75 °FSunny.No wind44%30.08 "Hg10 mi
3:55 PM73 °FSunny.No wind47%30.09 "Hg10 mi
3:35 PM75 °FSunny.No wind47%30.09 "Hg10 mi
2:15 PM72 °FSunny.5 mph53%30.10 "Hg10 mi
1:55 PM70 °FSunny.No wind57%30.11 "Hg10 mi
1:35 PM72 °FSunny.No wind53%30.12 "Hg10 mi
1:15 PM72 °FSunny.5 mph53%30.13 "Hg9 mi
12:55 PM70 °FSunny.3 mph53%30.13 "Hg9 mi
12:35 PM70 °FSunny.No wind57%30.14 "Hg8 mi
12:15 PM66 °FSunny.No wind64%30.14 "Hg10 mi
11:55 AM64 °FSunny.No wind68%30.14 "Hg10 mi
11:35 AM64 °FSunny.No wind68%30.13 "Hg10 mi
11:15 AM63 °FSunny.No wind73%30.14 "Hg10 mi
10:55 AM61 °FSunny.No wind77%30.14 "Hg10 mi
10:35 AM59 °FSunny.No wind82%30.15 "Hg10 mi
10:15 AM57 °FSunny.No wind88%30.14 "Hg10 mi
9:55 AM57 °FSunny.No wind88%30.14 "Hg9 mi
9:35 AM55 °FSunny.No wind94%30.14 "Hg7 mi
9:15 AM55 °FPassing clouds.No wind88%30.14 "Hg7 mi
8:55 AM55 °FPartly sunny.No wind88%30.14 "Hg3 mi
8:35 AM54 °FLow clouds.No wind94%30.13 "Hg5 mi
8:15 AM54 °FLow clouds.No wind88%30.13 "Hg10 mi
7:55 AM52 °FLow clouds.3 mph94%30.14 "Hg10 mi
7:35 AM54 °FPassing clouds.No wind88%30.12 "Hg10 mi
7:15 AM52 °FClear.3 mph88%30.13 "Hg10 mi
6:55 AM52 °FClear.3 mph88%30.14 "Hg10 mi
6:35 AM52 °FClear.6 mph88%30.15 "Hg10 mi
6:15 AM52 °FClear.3 mph88%30.13 "Hg10 mi
5:55 AM50 °FClear.No wind88%30.13 "Hg10 mi
5:35 AM52 °FClear.No wind88%30.13 "Hg10 mi
5:15 AM52 °FClear.No wind88%30.14 "Hg10 mi
4:55 AM52 °FClear.No wind88%30.15 "Hg10 mi
4:35 AM52 °FClear.No wind88%30.15 "Hg10 mi
4:15 AM52 °FClear.No wind88%30.16 "Hg10 mi
Weather by CustomWeather, © 2015

See weather overviewHow to use our weather pages